When you browse on this site, cookies collect data to enhance your experience and personalize the content and advertising you see.
Visit our Privacy Policy to learn more. By continuing to use the site, you agree to this use of cookies and data.
  • In Czech Republic
  • List of Countries
  • For 7 days
  • Water Temperature
  • Weather Map
  • Weather Widgets
  • user-avatar
    Login

    Hourly Weather Limbazi

    Today, 5 June, Friday

    Time Temperature Precipitation Wind Pressure Humidity
    00:00 +11°C° 0 mm 1 mps 743 mmHg 98%
    01:00 +11°C° 0 mm 1 mps 743 mmHg 98%
    02:00 +11°C° 0 mm 1 mps 743 mmHg 98%
    03:00 +11°C° 0 mm 1 mps 743 mmHg 97%
    04:00 +11°C° 0 mm 1 mps 743 mmHg 97%
    05:00 +11°C° 0 mm 1 mps 742 mmHg 97%
    06:00 +13°C° 0 mm 1 mps 743 mmHg 93%
    07:00 +14°C° 0 mm 1 mps 743 mmHg 90%
    08:00 +15°C° 0 mm 1 mps 743 mmHg 86%
    09:00 +16°C° 0.1 mm 1 mps 743 mmHg 78%
    10:00 +18°C° 0.1 mm 2 mps 743 mmHg 70%
    11:00 +19°C° 0.1 mm 2 mps 743 mmHg 61%
    12:00 +20°C° 0.1 mm 2 mps 743 mmHg 56%
    13:00 +21°C° 0.1 mm 2 mps 743 mmHg 51%
    14:00 +23°C° 0.1 mm 2 mps 743 mmHg 45%
    15:00 +23°C° 0 mm 2 mps 743 mmHg 46%
    16:00 +22°C° 0 mm 3 mps 743 mmHg 46%
    17:00 +22°C° 0 mm 3 mps 743 mmHg 47%
    18:00 +21°C° 0 mm 3 mps 743 mmHg 54%
    19:00 +19°C° 0 mm 4 mps 742 mmHg 61%
    20:00 +18°C° 0 mm 4 mps 742 mmHg 68%
    21:00 +17°C° 0 mm 4 mps 742 mmHg 68%
    22:00 +15°C° 0 mm 5 mps 742 mmHg 68%
    23:00 +14°C° 0 mm 5 mps 741 mmHg 68%

    Tomorrow, 6 June, Saturday

    Time Temperature Precipitation Wind Pressure Humidity
    00:00 +14°C° 0.2 mm 5 mps 741 mmHg 74%
    01:00 +14°C° 0.2 mm 5 mps 741 mmHg 80%
    02:00 +14°C° 0.2 mm 5 mps 741 mmHg 85%
    03:00 +14°C° 0.3 mm 5 mps 741 mmHg 89%
    04:00 +14°C° 0.3 mm 5 mps 741 mmHg 92%
    05:00 +14°C° 0.3 mm 5 mps 741 mmHg 95%
    06:00 +14°C° 0.1 mm 4 mps 741 mmHg 95%
    07:00 +13°C° 0.1 mm 4 mps 742 mmHg 95%
    08:00 +13°C° 0.1 mm 3 mps 742 mmHg 95%
    09:00 +14°C° 0 mm 4 mps 742 mmHg 84%
    10:00 +16°C° 0 mm 5 mps 742 mmHg 74%
    11:00 +19°C° 0 mm 6 mps 743 mmHg 64%
    12:00 +19°C° 0.4 mm 6 mps 743 mmHg 64%
    13:00 +17°C° 0.4 mm 7 mps 744 mmHg 64%
    14:00 +17°C° 0.4 mm 7 mps 745 mmHg 64%
    15:00 +17°C° 0 mm 7 mps 745 mmHg 59%
    16:00 +16°C° 0 mm 6 mps 746 mmHg 53%
    17:00 +16°C° 0 mm 6 mps 747 mmHg 48%
    18:00 +15°C° 0 mm 5 mps 747 mmHg 53%
    19:00 +14°C° 0 mm 4 mps 748 mmHg 58%
    20:00 +13°C° 0 mm 4 mps 748 mmHg 62%
    21:00 +12°C° 0 mm 4 mps 749 mmHg 67%
    22:00 +11°C° 0 mm 4 mps 749 mmHg 71%
    23:00 +11°C° 0 mm 4 mps 750 mmHg 75%

    Day after tomorrow, 7 June, Sunday

    Time Temperature Precipitation Wind Pressure Humidity
    00:00 +10°C° 0 mm 4 mps 750 mmHg 78%
    01:00 +10°C° 0 mm 4 mps 750 mmHg 82%
    02:00 +10°C° 0 mm 4 mps 751 mmHg 85%
    03:00 +11°C° 0 mm 4 mps 751 mmHg 80%
    04:00 +12°C° 0 mm 3 mps 751 mmHg 74%
    05:00 +13°C° 0 mm 3 mps 751 mmHg 69%
    06:00 +14°C° 0 mm 4 mps 752 mmHg 68%
    07:00 +15°C° 0 mm 4 mps 752 mmHg 68%
    08:00 +17°C° 0 mm 4 mps 752 mmHg 68%
    09:00 +17°C° 0 mm 4 mps 752 mmHg 68%
    10:00 +17°C° 0 mm 3 mps 753 mmHg 69%
    11:00 +18°C° 0 mm 2 mps 753 mmHg 70%
    12:00 +19°C° 0.1 mm 2 mps 753 mmHg 68%
    13:00 +21°C° 0.1 mm 2 mps 753 mmHg 65%
    14:00 +24°C° 0.1 mm 2 mps 752 mmHg 63%
    15:00 +21°C° 0.6 mm 2 mps 752 mmHg 73%
    16:00 +19°C° 0.6 mm 2 mps 751 mmHg 83%
    17:00 +18°C° 0.6 mm 3 mps 751 mmHg 93%
    18:00 +17°C° 3.7 mm 3 mps 751 mmHg 94%
    19:00 +15°C° 3.7 mm 4 mps 751 mmHg 96%
    20:00 +15°C° 3.7 mm 4 mps 751 mmHg 98%
    21:00 +14°C° 0.3 mm 3 mps 751 mmHg 98%
    22:00 +14°C° 0.3 mm 2 mps 751 mmHg 98%
    23:00 +13°C° 0.3 mm 1 mps 752 mmHg 98%

    8 June, Monday

    Time Temperature Precipitation Wind Pressure Humidity
    00:00 +13°C° 0 mm 1 mps 752 mmHg 98%
    01:00 +13°C° 0 mm 2 mps 752 mmHg 98%
    02:00 +13°C° 0 mm 2 mps 752 mmHg 98%
    03:00 +13°C° 0 mm 2 mps 753 mmHg 98%
    04:00 +13°C° 0 mm 2 mps 753 mmHg 98%
    05:00 +13°C° 0 mm 2 mps 753 mmHg 98%
    06:00 +14°C° 0 mm 2 mps 754 mmHg 96%
    07:00 +15°C° 0 mm 1 mps 754 mmHg 93%
    08:00 +16°C° 0 mm 1 mps 754 mmHg 91%
    09:00 +16°C° 0.2 mm 2 mps 755 mmHg 90%
    10:00 +17°C° 0.2 mm 2 mps 755 mmHg 88%
    11:00 +17°C° 0.2 mm 2 mps 755 mmHg 87%
    12:00 +18°C° 0.1 mm 2 mps 755 mmHg 84%
    13:00 +20°C° 0.1 mm 2 mps 755 mmHg 80%
    14:00 +21°C° 0.1 mm 3 mps 755 mmHg 77%
    15:00 +21°C° 0.6 mm 3 mps 754 mmHg 82%
    16:00 +20°C° 0.6 mm 3 mps 754 mmHg 87%
    17:00 +20°C° 0.6 mm 4 mps 754 mmHg 92%
    18:00 +20°C° 0.9 mm 4 mps 754 mmHg 93%
    19:00 +19°C° 0.9 mm 4 mps 754 mmHg 94%
    20:00 +19°C° 0.9 mm 4 mps 754 mmHg 96%
    21:00 +19°C° 0.2 mm 3 mps 754 mmHg 96%
    22:00 +18°C° 0.2 mm 3 mps 754 mmHg 96%
    23:00 +18°C° 0.2 mm 2 mps 754 mmHg 97%

    9 June, Tuesday

    Time Temperature Precipitation Wind Pressure Humidity
    00:00 +18°C° 0.2 mm 2 mps 754 mmHg 97%
    01:00 +18°C° 0.2 mm 2 mps 754 mmHg 97%
    02:00 +18°C° 0.2 mm 2 mps 754 mmHg 97%
    03:00 +18°C° 0.4 mm 2 mps 754 mmHg 97%
    04:00 +19°C° 0.4 mm 1 mps 754 mmHg 97%
    05:00 +19°C° 0.4 mm 1 mps 754 mmHg 96%
    06:00 +20°C° 0.4 mm 1 mps 754 mmHg 94%
    07:00 +21°C° 0.4 mm 1 mps 754 mmHg 92%
    08:00 +23°C° 0.4 mm 1 mps 754 mmHg 90%
    09:00 +24°C° 1.1 mm 2 mps 754 mmHg 88%
    10:00 +24°C° 1.1 mm 2 mps 754 mmHg 86%
    11:00 +25°C° 1.1 mm 2 mps 754 mmHg 84%
    12:00 +25°C° 0.8 mm 2 mps 754 mmHg 83%
    13:00 +26°C° 0.8 mm 2 mps 754 mmHg 81%
    14:00 +26°C° 0.8 mm 2 mps 754 mmHg 79%
    15:00 +26°C° 0.2 mm 2 mps 754 mmHg 77%
    16:00 +26°C° 0.2 mm 2 mps 754 mmHg 76%
    17:00 +26°C° 0.2 mm 1 mps 754 mmHg 75%
    18:00 +25°C° 0.3 mm 1 mps 754 mmHg 80%
    19:00 +24°C° 0.3 mm 1 mps 754 mmHg 84%
    20:00 +22°C° 0.3 mm 1 mps 754 mmHg 89%
    21:00 +21°C° 0.4 mm 2 mps 754 mmHg 91%
    22:00 +20°C° 0.4 mm 2 mps 754 mmHg 92%
    23:00 +19°C° 0.4 mm 3 mps 754 mmHg 94%

    10 June, Wednesday

    Time Temperature Precipitation Wind Pressure Humidity
    00:00 +19°C° 0.5 mm 3 mps 754 mmHg 95%
    01:00 +19°C° 0.5 mm 2 mps 754 mmHg 95%
    02:00 +19°C° 0.5 mm 2 mps 754 mmHg 96%
    03:00 +19°C° 0.5 mm 2 mps 754 mmHg 96%
    04:00 +19°C° 0.5 mm 2 mps 754 mmHg 97%
    05:00 +20°C° 0.5 mm 1 mps 754 mmHg 97%
    06:00 +21°C° 0.1 mm 1 mps 754 mmHg 94%
    07:00 +22°C° 0.1 mm 1 mps 754 mmHg 91%
    08:00 +24°C° 0.1 mm 1 mps 754 mmHg 88%
    09:00 +25°C° 1 mm 1 mps 754 mmHg 83%
    10:00 +26°C° 1 mm 1 mps 754 mmHg 77%
    11:00 +28°C° 1 mm 1 mps 754 mmHg 72%
    12:00 +28°C° 0.7 mm 1 mps 754 mmHg 71%
    13:00 +28°C° 0.7 mm 2 mps 754 mmHg 70%
    14:00 +28°C° 0.7 mm 2 mps 754 mmHg 69%
    15:00 +28°C° 0.4 mm 2 mps 754 mmHg 70%
    16:00 +28°C° 0.4 mm 2 mps 754 mmHg 71%
    17:00 +27°C° 0.4 mm 2 mps 754 mmHg 72%
    18:00 +26°C° 0.2 mm 2 mps 754 mmHg 78%
    19:00 +25°C° 0.2 mm 1 mps 754 mmHg 83%
    20:00 +24°C° 0.2 mm 1 mps 754 mmHg 88%
    21:00 +23°C° 0 mm 1 mps 755 mmHg 90%
    22:00 +22°C° 0 mm 1 mps 755 mmHg 92%
    23:00 +21°C° 0 mm 1 mps 755 mmHg 94%
    Show more